Hourly Data Report for November 12, 2017

All times are specified in Local Standard Time (LST). Add 1 hour to adjust for Daylight Saving Time where and when it is observed.

GREENWOOD A
NOVA SCOTIA

44°59'00.000" N
64°55'00.000" W
28.00 m
8202000
71397
YZX

Download Data

Hourly Data (November 2017)
Hourly Data Report for November 12, 2017
Temp Definition
°C
Dew Point Temp Definition
°C
Rel Hum Definition
%
Wind Dir Definition
10's deg

Wind Spd Definition
km/h
Visibility Definition
km
Stn Press Definition
kPa
Hmdx Definition


Wind Chill Definition


Weather Definition


TIME
00:00 -3.8 -10.0 62 19 4 24.1 102.80   -5 Clear
01:00 -3.2 -10.7 56 18 4 24.1 102.79   -5 Clear
02:00 -4.9 -11.6 59 21 6 24.1 102.84   -8 Clear
03:00 -2.9 -8.3 66 25 4 24.1 102.88   -4 Clear
04:00 -5.5 -8.5 79   0 24.1 102.90     Clear
05:00 -6.4 -9.6 78   0 24.1 102.92     Clear
06:00 -6.5 -9.4 80   0 24.1 102.95     Clear
07:00 -6.4 -9.3 80 25 6 24.1 103.03   -9 Mainly Clear
08:00 -6.2 -8.7 82 25 6 24.1 103.07   -9 Mostly Cloudy
09:00 -3.9 -6.8 80 25 4 24.1 103.06   -6 Mostly Cloudy
10:00 -1.8 -6.4 71 27 4 24.1 103.07   -3 Mostly Cloudy
11:00 0.3 -2.8 80 27 4 24.1 103.04     Mostly Cloudy
12:00 1.9 -2.8 71 27 7 24.1 102.94     Mostly Cloudy
13:00 2.6 -3.1 66 23 7 24.1 102.91     Mostly Cloudy
14:00 3.4 -3.6 60 29 17 24.1 102.87     Mostly Cloudy
15:00 3.4 -3.3 61 29 17 24.1 102.87     Mostly Cloudy
16:00 3.4 -2.1 67 27 17 24.1 102.86     Mostly Cloudy
17:00 2.7 -2.7 68 26 7 24.1 102.85     Mostly Cloudy
18:00 2.0 -2.7 71 22 6 24.1 102.90     Mostly Cloudy
19:00 0.9 -2.6 77   0 24.1 102.91     Mostly Cloudy
20:00 -0.8 -3.6 81   0 24.1 102.92     Mainly Clear
21:00 -1.0 -3.6 82   0 24.1 102.92     Mostly Cloudy
22:00 -1.2 -3.8 82   0 24.1 102.92     Mostly Cloudy
23:00 -1.2 -3.8 82   0 24.1 102.92     Mainly Clear

Notes on Data Quality.

Legend

  • E = Estimated
  • M = Missing
  • NA = Not Available
  • ‡ = Partner data that is not subject to review by the National Climate Archives
Date modified: